GW1572 Weather Reports


time (UTC)temp
C
wind
direction
speed
KPH
gust
KPH
rain 1hr
cm
rain 24hr
cm
rain mn
cm
humidity
%
barometer
mb
20260901055441 23 141 0.0 0.0 0.00 0.00 0.00 99 1009.4
20260901054839 23 137 0.0 0.0 0.00 0.00 0.00 99 1009.4
20260901054232 23 130 0.0 0.0 0.00 0.00 0.00 99 1009.4
20260901053619 23 135 0.0 0.0 0.00 0.00 0.00 99 1009.4
20260901053016 23 142 0.0 0.0 0.00 0.00 0.00 99 1009.4
20260901052437 23 137 0.0 0.0 0.00 0.00 0.00 99 1009.8
20260901051844 23 142 0.0 0.0 0.00 0.00 0.00 99 1009.8
20260901051211 23 150 0.0 0.0 0.00 0.00 0.00 99 1009.4
20260901050633 23 135 0.0 0.0 0.00 0.00 0.00 99 1009.4
20260901050019 23 138 0.0 0.0 0.00 0.00 0.00 99 1009.8
20260901045445 23 139 0.0 0.0 0.00 0.00 0.00 99 1009.8
20260901044808 23 141 0.0 0.0 0.00 0.00 0.00 99 1009.8
20260901044207 23 134 0.0 0.0 0.00 0.00 0.00 99 1009.8
20260901043008 23 138 0.0 0.0 0.00 0.00 0.00 99 1009.8
20260901042443 23 146 0.0 0.0 0.00 0.00 0.00 99 1009.8
20260901041847 23 143 0.0 0.0 0.00 0.00 0.00 99 1009.8
20260901035444 24 143 0.0 0.0 0.00 0.00 0.00 99 1010.1
20260901034829 24 142 0.0 0.0 0.00 0.00 0.00 99 1010.1
20260901034218 24 142 0.0 0.0 0.00 0.00 0.00 99 1010.1
20260901033639 24 142 0.0 0.0 0.00 0.00 0.00 99 1010.1
20260901033039 24 142 0.0 0.0 0.00 0.00 0.00 99 1010.1
20260901032450 24 142 0.0 0.0 0.00 0.00 0.00 99 1010.1
20260901031811 24 142 0.0 0.0 0.00 0.00 0.00 99 1010.4
20260901031246 24 142 0.0 0.0 0.00 0.00 0.00 99 1010.4
20260901030650 24 142 0.0 0.0 0.00 0.00 0.00 99 1010.4
20260901030049 24 141 0.0 0.0 0.00 0.00 0.00 99 1010.4
20260901025414 24 137 0.0 0.0 0.00 0.00 0.00 99 1010.4
20260901024810 24 134 0.0 0.0 0.00 0.00 0.00 99 1010.4
20260901024229 25 135 0.0 0.0 0.00 0.00 0.00 99 1010.1
20260901023039 25 136 0.0 0.0 0.00 0.00 0.00 99 1010.1
20260901022432 25 131 0.0 0.0 0.00 0.00 0.00 99 1010.4
20260901021847 25 130 0.0 0.0 0.00 0.00 0.00 99 1010.4
20260901021219 25 136 0.0 0.0 0.00 0.00 0.00 99 1010.4
20260901020637 25 137 0.0 0.0 0.00 0.00 0.00 99 1010.4
20260901020045 25 137 0.0 0.0 0.00 0.00 0.00 99 1010.4
20260901014843 25 134 0.0 0.0 0.00 0.00 0.00 98 1010.4
20260901014223 25 135 0.0 0.0 0.00 0.00 0.00 98 1010.1
20260901013639 25 134 0.0 0.0 0.00 0.00 0.00 98 1010.1
20260901013046 25 134 0.0 0.0 0.00 0.00 0.00 98 1010.1
20260901012414 25 135 0.0 0.0 0.00 0.00 0.00 97 1010.1
20260901011847 25 135 0.0 0.0 0.00 0.00 0.00 97 1009.4
20260901011230 25 131 0.0 0.0 0.00 0.00 0.00 97 1009.8
20260901010643 25 131 0.0 0.0 0.00 0.00 0.00 97 1009.4
20260901010022 25 135 0.0 0.0 0.00 0.00 0.00 97 1009.4
20260901005444 25 133 0.0 0.0 0.00 0.00 0.00 97 1009.4
20260901004837 25 133 0.0 0.0 0.00 0.00 0.00 96 1009.4
20260901004233 26 135 0.0 0.0 0.00 0.00 0.00 96 1009.4
20260901003629 26 133 0.0 0.0 0.00 0.00 0.00 96 1009.4
20260901003040 26 132 0.0 0.0 0.00 0.00 0.00 95 1009.4
20260901002414 26 142 0.0 0.0 0.00 0.00 0.00 95 1009.4
20260901001826 26 143 0.0 0.0 0.00 0.00 0.00 94 1009.1
20260901000625 26 134 0.0 0.0 0.00 0.00 0.00 93 1008.8
20260901000048 26 142 0.0 0.0 0.00 0.00 0.00 93 1008.8
20260831235414 26 139 0.0 0.0 0.00 0.00 0.00 93 1009.1
20260831233648 27 142 0.0 0.0 0.00 0.00 0.00 90 1009.1
20260831233040 27 136 0.0 0.0 0.00 0.00 0.00 89 1009.1
20260831232421 27 144 0.0 0.0 0.00 0.00 0.00 88 1009.1
20260831231816 27 140 0.0 0.0 0.00 0.00 0.00 87 1009.1
20260831230048 28 142 0.0 0.0 0.00 0.00 0.00 87 1009.1
20260831225409 28 141 0.0 0.0 0.00 0.00 0.00 88 1009.4
20260831224825 28 139 0.0 0.0 0.00 0.00 0.00 87 1009.4
20260831224249 28 142 0.0 0.0 0.00 0.00 0.00 87 1009.1
20260831223044 28 136 0.0 0.0 0.00 0.00 0.00 86 1009.4
20260831222425 29 136 0.0 0.0 0.00 0.00 0.00 85 1009.4
20260831221840 29 125 0.0 0.0 0.00 0.00 0.00 85 1009.4
20260831221216 30 138 0.0 0.0 0.00 0.00 0.00 84 1009.4
20260831214830 32 145 0.0 0.0 0.00 0.00 0.00 77 1009.4
20260831214225 32 143 0.0 0.0 0.00 0.00 0.00 76 1009.8
20260831213637 33 153 0.0 0.0 0.00 0.00 0.00 72 1009.8
20260831212447 33 143 1.6 1.6 0.00 0.00 0.00 71 1009.8
20260831211242 34 196 3.2 3.2 0.00 0.00 0.00 67 1009.8
20260831210643 32 185 1.6 1.6 0.00 0.00 0.00 74 1010.1
20260831210041 32 157 0.0 1.6 0.00 0.00 0.00 76 1010.1
20260831205440 32 163 0.0 1.6 0.00 0.00 0.00 75 1009.8
20260831204843 32 199 0.0 0.0 0.00 0.00 0.00 74 1009.8
20260831204227 32 176 1.6 1.6 0.00 0.00 0.00 72 1010.1
20260831203626 33 155 0.0 1.6 0.00 0.00 0.00 66 1009.8
20260831203048 33 209 1.6 3.2 0.00 0.00 0.00 65 1009.8
20260831201242 33 164 0.0 0.0 0.00 0.00 0.00 71 1010.1
20260831200637 33 172 1.6 1.6 0.00 0.00 0.00 69 1010.1
20260831200027 33 255 1.6 1.6 0.00 0.00 0.00 67 1010.4
20260831195410 33 237 3.2 3.2 0.00 0.00 0.00 70 1010.4
20260831194835 32 265 4.8 4.8 0.00 0.00 0.00 71 1010.4
20260831194240 31 182 1.6 1.6 0.00 0.00 0.00 80 1010.4
20260831193645 31 155 0.0 0.0 0.00 0.00 0.00 80 1010.4
20260831193024 31 139 0.0 0.0 0.00 0.00 0.00 78 1010.4
20260831192445 31 182 1.6 1.6 0.00 0.00 0.00 74 1010.4
20260831191838 32 213 3.2 3.2 0.00 0.00 0.00 75 1010.8
20260831191225 32 182 1.6 1.6 0.00 0.00 0.00 72 1010.8
20260831190635 33 209 1.6 3.2 0.00 0.00 0.00 70 1010.8
20260831190045 32 342 3.2 3.2 0.00 0.00 0.00 68 1010.8
20260831185437 32 287 3.2 4.8 0.00 0.00 0.00 70 1011.1
20260831184251 32 210 3.2 4.8 0.00 0.00 0.00 70 1011.1
20260831183631 32 304 3.2 3.2 0.00 0.00 0.00 71 1011.1
20260831183051 32 259 1.6 3.2 0.00 0.00 0.00 72 1011.1
20260831182410 32 245 3.2 3.2 0.00 0.00 0.00 74 1011.1
20260831181832 32 278 1.6 1.6 0.00 0.00 0.00 74 1011.1
20260831180635 31 166 1.6 1.6 0.00 0.00 0.00 74 1011.1
20260831180034 32 329 4.8 4.8 0.00 0.00 0.00 71 1011.1
20260831175420 32 161 1.6 1.6 0.00 0.00 0.00 73 1011.5
20260831174808 32 88 3.2 3.2 0.00 0.00 0.00 76 1011.1
20260831174228 31 188 1.6 1.6 0.00 0.00 0.00 75 1011.5
20260831173651 31 32 3.2 4.8 0.00 0.00 0.00 76 1011.5
20260831172427 31 8 3.2 3.2 0.00 0.00 0.00 77 1011.5
20260831171229 30 273 3.2 3.2 0.00 0.00 0.00 77 1011.5
20260831170623 30 120 0.0 1.6 0.00 0.00 0.00 76 1011.8
20260831165439 30 347 4.8 6.4 0.00 0.00 0.00 77 1011.5
20260831164824 30 126 1.6 1.6 0.00 0.00 0.00 79 1011.8
20260831164248 30 122 0.0 1.6 0.00 0.00 0.00 80 1011.5
20260831163634 30 283 1.6 3.2 0.00 0.00 0.00 82 1011.8
20260831163030 29 253 1.6 3.2 0.00 0.00 0.00 83 1011.8
20260831162440 29 58 1.6 3.2 0.00 0.00 0.00 82 1011.8
20260831161808 28 355 4.8 6.4 0.00 0.00 0.00 85 1011.5
20260831161228 27 236 3.2 3.2 0.00 0.00 0.00 85 1011.8
20260831160646 27 353 4.8 4.8 0.00 0.00 0.00 86 1011.8
20260831160050 27 253 3.2 4.8 0.00 0.00 0.00 88 1011.8
20260831155441 27 81 1.6 1.6 0.00 0.00 0.00 90 1011.8
20260831154218 26 184 1.6 3.2 0.00 0.00 0.00 95 1011.8
20260831153648 25 136 0.0 0.0 0.00 0.00 0.00 95 1011.8
20260831153042 25 157 0.0 1.6 0.00 0.00 0.00 97 1011.8
20260831152407 25 131 0.0 0.0 0.00 0.00 0.00 98 1012.1
20260831151247 24 156 0.0 0.0 0.00 0.00 0.00 99 1012.1
20260831150632 24 158 0.0 0.0 0.00 0.00 0.00 99 1012.1
20260831150014 24 145 0.0 0.0 0.00 0.00 0.00 99 1012.1
20260831145441 24 144 0.0 1.6 0.00 0.00 0.00 99 1012.1
20260831144823 23 140 0.0 0.0 0.00 0.00 0.00 99 1012.1
20260831144217 23 149 0.0 0.0 0.00 0.00 0.00 99 1012.1
20260831143032 23 145 0.0 0.0 0.00 0.00 0.00 99 1012.1
20260831142410 23 149 0.0 0.0 0.00 0.00 0.00 99 1012.1
20260831141247 23 325 1.6 1.6 0.00 0.00 0.00 99 1012.1
20260831140651 23 146 0.0 0.0 0.00 0.00 0.00 99 1012.1
20260831135433 23 148 0.0 0.0 0.00 0.00 0.00 99 1011.8
20260831134848 22 173 1.6 1.6 0.00 0.00 0.00 99 1011.8
20260831134212 22 149 0.0 0.0 0.00 0.00 0.00 99 1011.8
20260831133646 22 132 0.0 0.0 0.00 0.00 0.00 99 1011.8
20260831133036 22 93 0.0 0.0 0.00 0.00 0.00 99 1011.8
20260831132448 22 173 0.0 0.0 0.00 0.00 0.00 99 1011.8
20260831131848 22 149 0.0 0.0 0.00 0.00 0.00 99 1011.5
20260831131239 22 151 0.0 0.0 0.00 0.00 0.00 99 1011.8
20260831130638 22 142 0.0 0.0 0.00 0.00 0.00 99 1011.8
20260831130043 22 133 0.0 0.0 0.00 0.00 0.00 99 1011.5
20260831125406 22 133 0.0 0.0 0.00 0.00 0.00 99 1011.8
20260831124810 21 133 0.0 0.0 0.00 0.00 0.00 99 1011.8
20260831124230 21 138 0.0 0.0 0.00 0.00 0.00 99 1011.8
20260831123035 21 125 0.0 0.0 0.00 0.00 0.00 99 1011.5
20260831122413 21 133 0.0 0.0 0.00 0.00 0.00 99 1011.5
20260831121833 21 130 0.0 0.0 0.00 0.00 0.00 99 1011.5
20260831121237 21 129 0.0 0.0 0.00 0.00 0.00 99 1011.5
20260831120649 21 132 0.0 0.0 0.00 0.00 0.00 99 1011.5
20260831120024 21 132 0.0 0.0 0.00 0.00 0.00 99 1011.8
20260831115442 21 132 0.0 0.0 0.00 0.00 0.00 99 1011.8
20260831114222 21 127 0.0 0.0 0.00 0.00 0.00 99 1011.5
20260831113636 21 126 0.0 0.0 0.00 0.00 0.00 99 1011.5
20260831113049 21 117 0.0 0.0 0.00 0.00 0.00 99 1011.1
20260831112411 21 117 0.0 0.0 0.00 0.00 0.00 99 1011.1
20260831111221 21 129 0.0 0.0 0.00 0.00 0.00 99 1011.1
20260831110608 21 121 0.0 0.0 0.00 0.00 0.00 99 1011.1
20260831110042 21 126 0.0 0.0 0.00 0.00 0.00 99 1010.8
20260831104852 20 123 0.0 0.0 0.00 0.00 0.00 99 1010.8
20260831104229 20 123 0.0 0.0 0.00 0.00 0.00 99 1010.8
20260831103641 20 122 0.0 0.0 0.00 0.00 0.00 99 1010.8
20260831103026 20 123 0.0 0.0 0.00 0.00 0.00 99 1010.8
20260831102417 20 127 0.0 0.0 0.00 0.00 0.00 99 1010.4
20260831101839 20 126 0.0 0.0 0.00 0.00 0.00 99 1010.8
20260831101226 20 124 0.0 0.0 0.00 0.00 0.00 99 1010.8
20260831100629 20 125 0.0 0.0 0.00 0.00 0.00 99 1010.8
20260831100049 20 124 0.0 0.0 0.00 0.00 0.00 99 1010.4
20260831094241 20 131 0.0 0.0 0.00 0.00 0.00 99 1010.8
20260831093645 20 131 0.0 0.0 0.00 0.00 0.00 99 1010.4
20260831093047 20 131 0.0 0.0 0.00 0.00 0.00 99 1010.8
20260831092425 20 130 0.0 0.0 0.00 0.00 0.00 99 1010.8
20260831091841 21 130 0.0 0.0 0.00 0.00 0.00 99 1010.8
20260831090014 20 137 0.0 0.0 0.00 0.00 0.00 99 1010.8
20260831085446 20 137 0.0 0.0 0.00 0.00 0.00 99 1010.8
20260831084813 20 137 0.0 0.0 0.00 0.00 0.00 99 1010.8
20260831083627 20 137 0.0 0.0 0.00 0.00 0.00 99 1010.4
20260831083041 20 137 0.0 0.0 0.00 0.00 0.00 99 1010.4
20260831082423 20 137 0.0 0.0 0.00 0.00 0.00 99 1010.4
20260831081818 20 137 0.0 0.0 0.00 0.00 0.00 99 1010.4
20260831081213 20 137 0.0 0.0 0.00 0.00 0.00 99 1010.4
20260831080627 20 137 0.0 0.0 0.00 0.00 0.00 99 1010.4
20260831075429 20 137 0.0 0.0 0.00 0.00 0.00 99 1010.4
20260831074806 20 137 0.0 0.0 0.00 0.00 0.00 99 1010.1
20260831074237 21 137 0.0 0.0 0.00 0.00 0.00 99 1010.4
20260831073615 21 137 0.0 0.0 0.00 0.00 0.00 99 1010.4
20260831073040 21 137 0.0 0.0 0.00 0.00 0.00 99 1010.1
20260831071845 21 137 0.0 0.0 0.00 0.00 0.00 99 1010.4
20260831070648 21 137 0.0 0.0 0.00 0.00 0.00 99 1010.4
20260831070008 21 137 0.0 0.0 0.00 0.00 0.00 99 1010.4
20260831065444 21 137 0.0 0.0 0.00 0.00 0.00 99 1010.4
20260831064821 21 137 0.0 0.0 0.00 0.00 0.00 99 1010.4
20260831064208 21 137 0.0 0.0 0.00 0.00 0.00 99 1010.4
20260831063033 21 137 0.0 0.0 0.00 0.00 0.00 99 1010.4
20260831062429 21 137 0.0 0.0 0.00 0.00 0.00 99 1010.4
20260831061817 21 137 0.0 0.0 0.00 0.00 0.00 99 1010.4
20260831061236 21 137 0.0 0.0 0.00 0.00 0.00 99 1010.4
20260831060636 21 137 0.0 0.0 0.00 0.00 0.00 99 1010.8